Location: Cahas Mountain Overlook
(37.0833°N, 80.1000°W)
Time: 21:50:06
(UTC-05:00)

ISS - Pass Details

Date: 18 January 2026
Orbit: 413 x 428 km, 51.6° (Epoch: 18 February)

Event Time Altitude Azimuth Distance (km) Brightness Sun altitude
Rises 17:54:29 0° 281° (W) 2,351 1.2 -5.2°
Reaches altitude 10° 17:57:34 10° 312° (NW) 1,495 -0.6 -5.8°
Maximum altitude 17:59:06 13° 339° (NNW) 1,351 -1.2 -6.1°
Drops below altitude 10° 18:00:39 10° 7° (N) 1,501 -1.2 -6.4°
Enters shadow 18:02:45 - 31° (NNE) 2,042 -0.7 -6.8°
